Time,TemperatureF,DewpointF,PressureIn,WindDirection,WindDirectionDegrees,WindSpeedMPH,WindSpeedGustMPH,Humidity,HourlyPrecipIn,Conditions,Clouds,dailyrainin,SoftwareType,DateUTC
2014-01-14 00:00:00,58.0,-99.9,30.16,North,360,8.0,9.0,-999,-99.99,,,-99.99,,2014-01-14 06:00:00,
2014-01-14 00:22:00,58.0,-99.9,30.16,North,360,8.0,9.0,-999,-99.99,,,-99.99,,2014-01-14 06:22:00,
2014-01-14 00:32:00,58.0,-99.9,30.16,North,360,8.0,9.0,-999,-99.99,,,-99.99,,2014-01-14 06:32:00,
2014-01-14 00:43:00,58.0,-99.9,30.16,North,360,8.0,9.0,-999,-99.99,,,-99.99,,2014-01-14 06:43:00,
2014-01-14 00:53:00,58.0,-99.9,30.16,North,360,8.0,9.0,-999,-99.99,,,-99.99,,2014-01-14 06:53:00,
2014-01-14 01:00:00,57.0,-99.9,30.14,NNE,30,7.0,7.0,-999,-99.99,,,-99.99,,2014-01-14 07:00:00,
2014-01-14 01:22:00,57.0,-99.9,30.14,NNE,30,7.0,7.0,-999,-99.99,,,-99.99,,2014-01-14 07:22:00,
2014-01-14 01:32:00,57.0,-99.9,30.14,NNE,30,7.0,7.0,-999,-99.99,,,-99.99,,2014-01-14 07:32:00,
2014-01-14 01:43:00,57.0,-99.9,30.14,NNE,30,7.0,7.0,-999,-99.99,,,-99.99,,2014-01-14 07:43:00,
2014-01-14 01:52:00,57.0,-99.9,30.14,NNE,30,7.0,7.0,-999,-99.99,,,-99.99,,2014-01-14 07:52:00,
2014-01-14 03:00:00,56.0,-99.9,30.11,East,90,3.0,3.0,-999,-99.99,,,-99.99,,2014-01-14 09:00:00,
2014-01-14 03:47:00,56.0,-99.9,30.11,East,90,3.0,3.0,-999,-99.99,,,-99.99,,2014-01-14 09:47:00,
2014-01-14 03:57:00,56.0,-99.9,30.11,East,90,3.0,3.0,-999,-99.99,,,-99.99,,2014-01-14 09:57:00,
2014-01-14 04:00:00,58.0,-99.9,30.11,East,90,3.0,3.0,-999,-99.99,,,-99.99,,2014-01-14 10:00:00,
2014-01-14 04:26:00,58.0,-99.9,30.11,East,90,3.0,3.0,-999,-99.99,,,-99.99,,2014-01-14 10:26:00,
2014-01-14 04:37:00,58.0,-99.9,30.11,East,90,3.0,3.0,-999,-99.99,,,-99.99,,2014-01-14 10:37:00,
2014-01-14 04:47:00,58.0,-99.9,30.11,East,90,3.0,3.0,-999,-99.99,,,-99.99,,2014-01-14 10:47:00,
2014-01-14 04:57:00,58.0,-99.9,30.11,East,90,3.0,3.0,-999,-99.99,,,-99.99,,2014-01-14 10:57:00,
2014-01-14 06:00:00,57.0,-99.9,30.13,WSW,240,7.0,8.0,-999,-99.99,,,-99.99,,2014-01-14 12:00:00,
2014-01-14 06:22:00,57.0,-99.9,30.13,WSW,240,7.0,8.0,-999,-99.99,,,-99.99,,2014-01-14 12:22:00,
2014-01-14 06:32:00,57.0,-99.9,30.13,WSW,240,7.0,8.0,-999,-99.99,,,-99.99,,2014-01-14 12:32:00,
2014-01-14 06:42:00,57.0,-99.9,30.13,WSW,240,7.0,8.0,-999,-99.99,,,-99.99,,2014-01-14 12:42:00,
2014-01-14 06:52:00,57.0,-99.9,30.13,WSW,240,7.0,8.0,-999,-99.99,,,-99.99,,2014-01-14 12:52:00,
2014-01-14 07:00:00,53.0,-99.9,30.14,West,260,8.0,10.0,-999,-99.99,,,-99.99,,2014-01-14 13:00:00,
2014-01-14 07:42:00,53.0,-99.9,30.14,West,260,8.0,10.0,-999,-99.99,,,-99.99,,2014-01-14 13:42:00,
2014-01-14 07:52:00,53.0,-99.9,30.14,West,260,8.0,10.0,-999,-99.99,,,-99.99,,2014-01-14 13:52:00,
2014-01-14 08:00:00,53.0,-99.9,30.15,West,260,7.0,8.0,-999,-99.99,,,-99.99,,2014-01-14 14:00:00,
2014-01-14 08:22:00,53.0,-99.9,30.15,West,260,7.0,8.0,-999,-99.99,,,-99.99,,2014-01-14 14:22:00,
2014-01-14 08:32:00,53.0,-99.9,30.15,West,260,7.0,8.0,-999,-99.99,,,-99.99,,2014-01-14 14:32:00,
2014-01-14 08:42:00,53.0,-99.9,30.15,West,260,7.0,8.0,-999,-99.99,,,-99.99,,2014-01-14 14:42:00,
2014-01-14 08:52:00,53.0,-99.9,30.15,West,260,7.0,8.0,-999,-99.99,,,-99.99,,2014-01-14 14:52:00,
2014-01-14 09:00:00,56.0,-99.9,30.17,WSW,250,7.0,9.0,-999,-99.99,,,-99.99,,2014-01-14 15:00:00,
2014-01-14 09:22:00,56.0,-99.9,30.17,WSW,250,7.0,9.0,-999,-99.99,,,-99.99,,2014-01-14 15:22:00,
2014-01-14 09:33:00,56.0,-99.9,30.17,WSW,250,7.0,9.0,-999,-99.99,,,-99.99,,2014-01-14 15:33:00,
2014-01-14 09:43:00,56.0,-99.9,30.17,WSW,250,7.0,9.0,-999,-99.99,,,-99.99,,2014-01-14 15:43:00,
2014-01-14 09:53:00,56.0,-99.9,30.17,WSW,250,7.0,9.0,-999,-99.99,,,-99.99,,2014-01-14 15:53:00,
2014-01-14 10:00:00,60.0,-99.9,30.18,SW,230,7.0,8.0,-999,-99.99,,,-99.99,,2014-01-14 16:00:00,
2014-01-14 10:43:00,60.0,-99.9,30.18,SW,230,7.0,8.0,-999,-99.99,,,-99.99,,2014-01-14 16:43:00,
2014-01-14 10:53:00,60.0,-99.9,30.18,SW,230,7.0,8.0,-999,-99.99,,,-99.99,,2014-01-14 16:53:00,
2014-01-14 11:00:00,61.0,-99.9,30.17,South,190,8.0,9.0,-999,-99.99,,,-99.99,,2014-01-14 17:00:00,
2014-01-14 11:43:00,61.0,-99.9,30.17,South,190,8.0,9.0,-999,-99.99,,,-99.99,,2014-01-14 17:43:00,
2014-01-14 11:53:00,61.0,-99.9,30.17,South,190,8.0,9.0,-999,-99.99,,,-99.99,,2014-01-14 17:53:00,
2014-01-14 12:00:00,59.0,-99.9,30.15,South,180,9.0,9.0,-999,-99.99,,,-99.99,,2014-01-14 18:00:00,
2014-01-14 12:22:00,59.0,-99.9,30.15,South,180,9.0,9.0,-999,-99.99,,,-99.99,,2014-01-14 18:22:00,
2014-01-14 12:32:00,59.0,-99.9,30.15,South,180,9.0,9.0,-999,-99.99,,,-99.99,,2014-01-14 18:32:00,
2014-01-14 12:43:00,59.0,-99.9,30.15,South,180,9.0,9.0,-999,-99.99,,,-99.99,,2014-01-14 18:43:00,
2014-01-14 12:52:00,59.0,-99.9,30.15,South,180,9.0,9.0,-999,-99.99,,,-99.99,,2014-01-14 18:52:00,
2014-01-14 13:00:00,59.0,-99.9,30.11,South,170,9.0,9.0,-999,-99.99,,,-99.99,,2014-01-14 19:00:00,
2014-01-14 13:22:00,59.0,-99.9,30.11,South,170,9.0,9.0,-999,-99.99,,,-99.99,,2014-01-14 19:22:00,
2014-01-14 13:32:00,59.0,-99.9,30.11,South,170,9.0,9.0,-999,-99.99,,,-99.99,,2014-01-14 19:32:00,
2014-01-14 13:42:00,59.0,-99.9,30.11,South,170,9.0,9.0,-999,-99.99,,,-99.99,,2014-01-14 19:42:00,
2014-01-14 13:52:00,59.0,-99.9,30.11,South,170,9.0,9.0,-999,-99.99,,,-99.99,,2014-01-14 19:52:00,
2014-01-14 14:00:00,59.0,-99.9,30.09,SSE,150,9.0,10.0,-999,-99.99,,,-99.99,,2014-01-14 20:00:00,
2014-01-14 14:42:00,59.0,-99.9,30.09,SSE,150,9.0,10.0,-999,-99.99,,,-99.99,,2014-01-14 20:42:00,
2014-01-14 14:52:00,59.0,-99.9,30.09,SSE,150,9.0,10.0,-999,-99.99,,,-99.99,,2014-01-14 20:52:00,
2014-01-14 15:00:00,59.0,-99.9,30.08,SE,130,9.0,9.0,-999,-99.99,,,-99.99,,2014-01-14 21:00:00,
2014-01-14 15:22:00,59.0,-99.9,30.08,SE,130,9.0,9.0,-999,-99.99,,,-99.99,,2014-01-14 21:22:00,
2014-01-14 15:33:00,59.0,-99.9,30.08,SE,130,9.0,9.0,-999,-99.99,,,-99.99,,2014-01-14 21:33:00,
2014-01-14 15:43:00,59.0,-99.9,30.08,SE,130,9.0,9.0,-999,-99.99,,,-99.99,,2014-01-14 21:43:00,
2014-01-14 15:53:00,59.0,-99.9,30.08,SE,130,9.0,9.0,-999,-99.99,,,-99.99,,2014-01-14 21:53:00,
2014-01-14 16:00:00,59.0,-99.9,30.08,SE,130,9.0,10.0,-999,-99.99,,,-99.99,,2014-01-14 22:00:00,
2014-01-14 16:23:00,59.0,-99.9,30.08,SE,130,9.0,10.0,-999,-99.99,,,-99.99,,2014-01-14 22:23:00,
2014-01-14 16:34:00,59.0,-99.9,30.08,SE,130,9.0,10.0,-999,-99.99,,,-99.99,,2014-01-14 22:34:00,
2014-01-14 16:42:00,59.0,-99.9,30.08,SE,130,9.0,10.0,-999,-99.99,,,-99.99,,2014-01-14 22:42:00,
2014-01-14 16:52:00,59.0,-99.9,30.08,SE,130,9.0,10.0,-999,-99.99,,,-99.99,,2014-01-14 22:52:00,
2014-01-14 17:00:00,61.0,-99.9,30.07,SE,140,13.0,13.0,-999,-99.99,,,-99.99,,2014-01-14 23:00:00,
2014-01-14 17:22:00,61.0,-99.9,30.07,SE,140,13.0,13.0,-999,-99.99,,,-99.99,,2014-01-14 23:22:00,
2014-01-14 17:32:00,61.0,-99.9,30.07,SE,140,13.0,13.0,-999,-99.99,,,-99.99,,2014-01-14 23:32:00,
2014-01-14 17:42:00,61.0,-99.9,30.07,SE,140,13.0,13.0,-999,-99.99,,,-99.99,,2014-01-14 23:42:00,
2014-01-14 17:53:00,61.0,-99.9,30.07,SE,140,13.0,13.0,-999,-99.99,,,-99.99,,2014-01-14 23:53:00,
2014-01-14 18:00:00,60.0,-99.9,30.08,SE,140,11.0,13.0,-999,-99.99,,,-99.99,,2014-01-15 00:00:00,
2014-01-14 18:22:00,60.0,-99.9,30.08,SE,140,11.0,13.0,-999,-99.99,,,-99.99,,2014-01-15 00:22:00,
2014-01-14 18:32:00,60.0,-99.9,30.08,SE,140,11.0,13.0,-999,-99.99,,,-99.99,,2014-01-15 00:32:00,
2014-01-14 18:42:00,60.0,-99.9,30.08,SE,140,11.0,13.0,-999,-99.99,,,-99.99,,2014-01-15 00:42:00,
2014-01-14 18:52:00,60.0,-99.9,30.08,SE,140,11.0,13.0,-999,-99.99,,,-99.99,,2014-01-15 00:52:00,
2014-01-14 22:00:00,61.0,-99.9,30.18,WSW,250,9.0,11.0,-999,-99.99,,,-99.99,,2014-01-15 04:00:00,
2014-01-14 22:23:00,61.0,-99.9,30.18,WSW,250,9.0,11.0,-999,-99.99,,,-99.99,,2014-01-15 04:23:00,
2014-01-14 22:34:00,61.0,-99.9,30.18,WSW,250,9.0,11.0,-999,-99.99,,,-99.99,,2014-01-15 04:34:00,
2014-01-14 22:42:00,61.0,-99.9,30.18,WSW,250,9.0,11.0,-999,-99.99,,,-99.99,,2014-01-15 04:42:00,
2014-01-14 22:53:00,61.0,-99.9,30.18,WSW,250,9.0,11.0,-999,-99.99,,,-99.99,,2014-01-15 04:53:00,
2014-01-14 23:00:00,59.0,-99.9,30.22,NNW,340,15.0,18.0,-999,-99.99,,,-99.99,,2014-01-15 05:00:00,
2014-01-14 23:43:00,59.0,-99.9,30.22,NNW,340,15.0,18.0,-999,-99.99,,,-99.99,,2014-01-15 05:43:00,
2014-01-14 23:52:00,59.0,-99.9,30.22,NNW,340,15.0,18.0,-999,-99.99,,,-99.99,,2014-01-15 05:52:00,